owner,sensor,date,latitude,longitude,sea_surface_height_above_sea_level,qcFlag 
WAVCIS,ioos:station:WAVCIS:CSI16:1,2009-07-01T00:00:00Z,29.4012,-89.0355,9.25,11111222 
WAVCIS,ioos:station:WAVCIS:CSI16:1,2009-07-01T01:00:00Z,29.4012,-89.0355,9.283,11111222 
WAVCIS,ioos:station:WAVCIS:CSI16:1,2009-07-01T02:00:00Z,29.4012,-89.0355,9.336,11111222 
WAVCIS,ioos:station:WAVCIS:CSI16:1,2009-07-01T03:00:00Z,29.4012,-89.0355,9.374,11111222 
WAVCIS,ioos:station:WAVCIS:CSI16:1,2009-07-01T04:00:00Z,29.4012,-89.0355,9.421,11111222 
WAVCIS,ioos:station:WAVCIS:CSI16:1,2009-07-01T05:00:00Z,29.4012,-89.0355,9.479,11111222 
WAVCIS,ioos:station:WAVCIS:CSI16:1,2009-07-01T06:00:00Z,29.4012,-89.0355,9.515,11111222 
WAVCIS,ioos:station:WAVCIS:CSI16:1,2009-07-01T07:00:00Z,29.4012,-89.0355,9.557,11111222 
WAVCIS,ioos:station:WAVCIS:CSI16:1,2009-07-01T08:00:00Z,29.4012,-89.0355,9.582,11111222 
WAVCIS,ioos:station:WAVCIS:CSI16:1,2009-07-01T09:00:00Z,29.4012,-89.0355,9.598,11111222 
WAVCIS,ioos:station:WAVCIS:CSI16:1,2009-07-01T10:00:00Z,29.4012,-89.0355,9.617,11111222 
WAVCIS,ioos:station:WAVCIS:CSI16:1,2009-07-01T11:00:00Z,29.4012,-89.0355,9.624,11111222 
WAVCIS,ioos:station:WAVCIS:CSI16:1,2009-07-01T12:00:00Z,29.4012,-89.0355,9.609,11111222 
WAVCIS,ioos:station:WAVCIS:CSI16:1,2009-07-01T13:00:00Z,29.4012,-89.0355,9.58,11111222 
WAVCIS,ioos:station:WAVCIS:CSI16:1,2009-07-01T14:00:00Z,29.4012,-89.0355,9.525,11111222 
WAVCIS,ioos:station:WAVCIS:CSI16:1,2009-07-01T15:00:00Z,29.4012,-89.0355,9.472,11111222 
WAVCIS,ioos:station:WAVCIS:CSI16:1,2009-07-01T16:00:00Z,29.4012,-89.0355,9.415,11111222 
WAVCIS,ioos:station:WAVCIS:CSI16:1,2009-07-01T17:00:00Z,29.4012,-89.0355,9.348,11111222 
WAVCIS,ioos:station:WAVCIS:CSI16:1,2009-07-01T18:00:00Z,29.4012,-89.0355,9.304,11111222 
WAVCIS,ioos:station:WAVCIS:CSI16:1,2009-07-01T19:00:00Z,29.4012,-89.0355,9.25,11111222 
WAVCIS,ioos:station:WAVCIS:CSI16:1,2009-07-01T20:00:00Z,29.4012,-89.0355,9.221,11111222 
WAVCIS,ioos:station:WAVCIS:CSI16:1,2009-07-01T21:00:00Z,29.4012,-89.0355,9.196,11111222 
WAVCIS,ioos:station:WAVCIS:CSI16:1,2009-07-01T22:00:00Z,29.4012,-89.0355,9.186,11111222 
WAVCIS,ioos:station:WAVCIS:CSI16:1,2009-07-01T23:00:00Z,29.4012,-89.0355,9.199,11111222 
WAVCIS,ioos:station:WAVCIS:CSI16:1,2009-07-02T00:00:00Z,29.4012,-89.0355,9.224,11111222 
WAVCIS,ioos:station:WAVCIS:CSI16:1,2009-07-02T01:00:00Z,29.4012,-89.0355,9.272,11111222 
WAVCIS,ioos:station:WAVCIS:CSI16:1,2009-07-02T02:00:00Z,29.4012,-89.0355,9.323,11111222 
WAVCIS,ioos:station:WAVCIS:CSI16:1,2009-07-02T03:00:00Z,29.4012,-89.0355,9.383,11111222 
WAVCIS,ioos:station:WAVCIS:CSI16:1,2009-07-02T04:00:00Z,29.4012,-89.0355,9.447,11111222 
WAVCIS,ioos:station:WAVCIS:CSI16:1,2009-07-02T05:00:00Z,29.4012,-89.0355,9.508,11111222 
WAVCIS,ioos:station:WAVCIS:CSI16:1,2009-07-02T06:00:00Z,29.4012,-89.0355,9.559,11111222 
WAVCIS,ioos:station:WAVCIS:CSI16:1,2009-07-02T07:00:00Z,29.4012,-89.0355,9.616,11111222 
WAVCIS,ioos:station:WAVCIS:CSI16:1,2009-07-02T08:00:00Z,29.4012,-89.0355,9.644,11111222 
WAVCIS,ioos:station:WAVCIS:CSI16:1,2009-07-02T09:00:00Z,29.4012,-89.0355,9.686,11111222 
WAVCIS,ioos:station:WAVCIS:CSI16:1,2009-07-02T10:00:00Z,29.4012,-89.0355,9.693,11111222 
WAVCIS,ioos:station:WAVCIS:CSI16:1,2009-07-02T11:00:00Z,29.4012,-89.0355,9.696,11111222 
WAVCIS,ioos:station:WAVCIS:CSI16:1,2009-07-02T12:00:00Z,29.4012,-89.0355,9.696,11111222 
WAVCIS,ioos:station:WAVCIS:CSI16:1,2009-07-02T13:00:00Z,29.4012,-89.0355,9.671,11111222 
WAVCIS,ioos:station:WAVCIS:CSI16:1,2009-07-02T14:00:00Z,29.4012,-89.0355,9.635,11111222 
WAVCIS,ioos:station:WAVCIS:CSI16:1,2009-07-02T15:00:00Z,29.4012,-89.0355,9.576,11111222 
WAVCIS,ioos:station:WAVCIS:CSI16:1,2009-07-02T16:00:00Z,29.4012,-89.0355,9.498,11111222 
WAVCIS,ioos:station:WAVCIS:CSI16:1,2009-07-02T17:00:00Z,29.4012,-89.0355,9.421,11111222 
WAVCIS,ioos:station:WAVCIS:CSI16:1,2009-07-02T18:00:00Z,29.4012,-89.0355,9.342,11111222 
WAVCIS,ioos:station:WAVCIS:CSI16:1,2009-07-02T19:00:00Z,29.4012,-89.0355,9.282,11111222 
WAVCIS,ioos:station:WAVCIS:CSI16:1,2009-07-02T20:00:00Z,29.4012,-89.0355,9.222,11111222 
WAVCIS,ioos:station:WAVCIS:CSI16:1,2009-07-02T21:00:00Z,29.4012,-89.0355,9.179,11111222 
WAVCIS,ioos:station:WAVCIS:CSI16:1,2009-07-02T22:00:00Z,29.4012,-89.0355,9.169,11111222 
WAVCIS,ioos:station:WAVCIS:CSI16:1,2009-07-02T23:00:00Z,29.4012,-89.0355,9.159,11111222 
WAVCIS,ioos:station:WAVCIS:CSI16:1,2009-07-03T00:00:00Z,29.4012,-89.0355,9.163,11111222 
WAVCIS,ioos:station:WAVCIS:CSI16:1,2009-07-03T01:00:00Z,29.4012,-89.0355,9.203,11111222 
WAVCIS,ioos:station:WAVCIS:CSI16:1,2009-07-03T02:00:00Z,29.4012,-89.0355,9.261,11111222 
WAVCIS,ioos:station:WAVCIS:CSI16:1,2009-07-03T03:00:00Z,29.4012,-89.0355,9.331,11111222 
WAVCIS,ioos:station:WAVCIS:CSI16:1,2009-07-03T04:00:00Z,29.4012,-89.0355,9.364,11111222 
WAVCIS,ioos:station:WAVCIS:CSI16:1,2009-07-03T05:00:00Z,29.4012,-89.0355,9.437,11111222 
WAVCIS,ioos:station:WAVCIS:CSI16:1,2009-07-03T06:00:00Z,29.4012,-89.0355,9.469,11111222 
WAVCIS,ioos:station:WAVCIS:CSI16:1,2009-07-03T07:00:00Z,29.4012,-89.0355,9.544,11111222 
WAVCIS,ioos:station:WAVCIS:CSI16:1,2009-07-03T08:00:00Z,29.4012,-89.0355,9.597,11111222 
WAVCIS,ioos:station:WAVCIS:CSI16:1,2009-07-03T09:00:00Z,29.4012,-89.0355,9.641,11111222 
WAVCIS,ioos:station:WAVCIS:CSI16:1,2009-07-03T10:00:00Z,29.4012,-89.0355,9.668,11111222 
WAVCIS,ioos:station:WAVCIS:CSI16:1,2009-07-03T11:00:00Z,29.4012,-89.0355,9.677,11111222 
WAVCIS,ioos:station:WAVCIS:CSI16:1,2009-07-03T12:00:00Z,29.4012,-89.0355,9.675,11111222 
WAVCIS,ioos:station:WAVCIS:CSI16:1,2009-07-03T13:00:00Z,29.4012,-89.0355,9.666,11111222 
WAVCIS,ioos:station:WAVCIS:CSI16:1,2009-07-03T14:00:00Z,29.4012,-89.0355,9.637,11111222 
WAVCIS,ioos:station:WAVCIS:CSI16:1,2009-07-03T15:00:00Z,29.4012,-89.0355,9.589,11111222 
WAVCIS,ioos:station:WAVCIS:CSI16:1,2009-07-03T16:00:00Z,29.4012,-89.0355,9.538,11111222 
WAVCIS,ioos:station:WAVCIS:CSI16:1,2009-07-03T17:00:00Z,29.4012,-89.0355,9.447,11111222 
WAVCIS,ioos:station:WAVCIS:CSI16:1,2009-07-03T18:00:00Z,29.4012,-89.0355,9.341,11111222 
WAVCIS,ioos:station:WAVCIS:CSI16:1,2009-07-03T19:00:00Z,29.4012,-89.0355,9.277,11111222 
WAVCIS,ioos:station:WAVCIS:CSI16:1,2009-07-03T20:00:00Z,29.4012,-89.0355,9.204,11111222 
WAVCIS,ioos:station:WAVCIS:CSI16:1,2009-07-03T21:00:00Z,29.4012,-89.0355,9.161,11111222 
WAVCIS,ioos:station:WAVCIS:CSI16:1,2009-07-03T22:00:00Z,29.4012,-89.0355,9.146,11111222 
WAVCIS,ioos:station:WAVCIS:CSI16:1,2009-07-03T23:00:00Z,29.4012,-89.0355,9.139,11111222 
WAVCIS,ioos:station:WAVCIS:CSI16:1,2009-07-04T00:00:00Z,29.4012,-89.0355,9.142,11111222 
WAVCIS,ioos:station:WAVCIS:CSI16:1,2009-07-04T01:00:00Z,29.4012,-89.0355,9.183,11111222 
WAVCIS,ioos:station:WAVCIS:CSI16:1,2009-07-04T02:00:00Z,29.4012,-89.0355,9.227,11111222 
WAVCIS,ioos:station:WAVCIS:CSI16:1,2009-07-04T03:00:00Z,29.4012,-89.0355,9.277,11111222 
WAVCIS,ioos:station:WAVCIS:CSI16:1,2009-07-04T04:00:00Z,29.4012,-89.0355,9.339,11111222 
WAVCIS,ioos:station:WAVCIS:CSI16:1,2009-07-04T05:00:00Z,29.4012,-89.0355,9.402,11111222 
WAVCIS,ioos:station:WAVCIS:CSI16:1,2009-07-04T06:00:00Z,29.4012,-89.0355,9.455,11111222 
WAVCIS,ioos:station:WAVCIS:CSI16:1,2009-07-04T07:00:00Z,29.4012,-89.0355,9.533,11111222 
WAVCIS,ioos:station:WAVCIS:CSI16:1,2009-07-04T08:00:00Z,29.4012,-89.0355,9.578,11111222 
WAVCIS,ioos:station:WAVCIS:CSI16:1,2009-07-04T09:00:00Z,29.4012,-89.0355,9.625,11111222 
WAVCIS,ioos:station:WAVCIS:CSI16:1,2009-07-04T10:00:00Z,29.4012,-89.0355,9.675,11111222 
WAVCIS,ioos:station:WAVCIS:CSI16:1,2009-07-04T11:00:00Z,29.4012,-89.0355,9.7,11111222 
WAVCIS,ioos:station:WAVCIS:CSI16:1,2009-07-04T12:00:00Z,29.4012,-89.0355,9.71,11111222 
WAVCIS,ioos:station:WAVCIS:CSI16:1,2009-07-04T13:00:00Z,29.4012,-89.0355,9.725,11111222 
WAVCIS,ioos:station:WAVCIS:CSI16:1,2009-07-04T14:00:00Z,29.4012,-89.0355,9.705,11111222 
WAVCIS,ioos:station:WAVCIS:CSI16:1,2009-07-04T15:00:00Z,29.4012,-89.0355,9.665,11111222 
WAVCIS,ioos:station:WAVCIS:CSI16:1,2009-07-04T16:00:00Z,29.4012,-89.0355,9.604,11111222 
WAVCIS,ioos:station:WAVCIS:CSI16:1,2009-07-04T17:00:00Z,29.4012,-89.0355,9.527,11111222 
WAVCIS,ioos:station:WAVCIS:CSI16:1,2009-07-04T18:00:00Z,29.4012,-89.0355,9.433,11111222 
WAVCIS,ioos:station:WAVCIS:CSI16:1,2009-07-04T19:00:00Z,29.4012,-89.0355,9.325,11111222 
WAVCIS,ioos:station:WAVCIS:CSI16:1,2009-07-04T20:00:00Z,29.4012,-89.0355,9.245,11111222 
WAVCIS,ioos:station:WAVCIS:CSI16:1,2009-07-04T21:00:00Z,29.4012,-89.0355,9.194,11111222 
WAVCIS,ioos:station:WAVCIS:CSI16:1,2009-07-04T22:00:00Z,29.4012,-89.0355,9.134,11111222 
WAVCIS,ioos:station:WAVCIS:CSI16:1,2009-07-04T23:00:00Z,29.4012,-89.0355,9.13,11111222 
WAVCIS,ioos:station:WAVCIS:CSI16:1,2009-07-05T00:00:00Z,29.4012,-89.0355,9.14,11111222 
WAVCIS,ioos:station:WAVCIS:CSI16:1,2009-07-05T01:00:00Z,29.4012,-89.0355,9.172,11111222 
WAVCIS,ioos:station:WAVCIS:CSI16:1,2009-07-05T02:00:00Z,29.4012,-89.0355,9.155,11111222 
WAVCIS,ioos:station:WAVCIS:CSI16:1,2009-07-05T03:00:00Z,29.4012,-89.0355,9.239,11111222 
WAVCIS,ioos:station:WAVCIS:CSI16:1,2009-07-05T04:00:00Z,29.4012,-89.0355,9.292,11111222 
WAVCIS,ioos:station:WAVCIS:CSI16:1,2009-07-05T05:00:00Z,29.4012,-89.0355,9.354,11111222 
WAVCIS,ioos:station:WAVCIS:CSI16:1,2009-07-05T06:00:00Z,29.4012,-89.0355,9.41,11111222 
WAVCIS,ioos:station:WAVCIS:CSI16:1,2009-07-05T07:00:00Z,29.4012,-89.0355,9.459,11111222 
WAVCIS,ioos:station:WAVCIS:CSI16:1,2009-07-05T08:00:00Z,29.4012,-89.0355,9.514,11111222 
WAVCIS,ioos:station:WAVCIS:CSI16:1,2009-07-05T09:00:00Z,29.4012,-89.0355,9.568,11111222 
WAVCIS,ioos:station:WAVCIS:CSI16:1,2009-07-05T10:00:00Z,29.4012,-89.0355,9.643,11111222 
WAVCIS,ioos:station:WAVCIS:CSI16:1,2009-07-05T11:00:00Z,29.4012,-89.0355,9.691,11111222 
WAVCIS,ioos:station:WAVCIS:CSI16:1,2009-07-05T12:00:00Z,29.4012,-89.0355,9.715,11111222 
WAVCIS,ioos:station:WAVCIS:CSI16:1,2009-07-05T13:00:00Z,29.4012,-89.0355,9.738,11111222 
WAVCIS,ioos:station:WAVCIS:CSI16:1,2009-07-05T14:00:00Z,29.4012,-89.0355,9.725,11111222 
WAVCIS,ioos:station:WAVCIS:CSI16:1,2009-07-05T15:00:00Z,29.4012,-89.0355,9.686,11111222 
WAVCIS,ioos:station:WAVCIS:CSI16:1,2009-07-05T16:00:00Z,29.4012,-89.0355,9.636,11111222 
WAVCIS,ioos:station:WAVCIS:CSI16:1,2009-07-05T17:00:00Z,29.4012,-89.0355,9.58,11111222 
WAVCIS,ioos:station:WAVCIS:CSI16:1,2009-07-05T18:00:00Z,29.4012,-89.0355,9.494,11111222 
WAVCIS,ioos:station:WAVCIS:CSI16:1,2009-07-05T19:00:00Z,29.4012,-89.0355,9.402,11111222 
WAVCIS,ioos:station:WAVCIS:CSI16:1,2009-07-05T20:00:00Z,29.4012,-89.0355,9.309,11111222 
WAVCIS,ioos:station:WAVCIS:CSI16:1,2009-07-05T21:00:00Z,29.4012,-89.0355,9.233,11111222 
WAVCIS,ioos:station:WAVCIS:CSI16:1,2009-07-05T22:00:00Z,29.4012,-89.0355,9.149,11111222 
WAVCIS,ioos:station:WAVCIS:CSI16:1,2009-07-05T23:00:00Z,29.4012,-89.0355,9.12,11111222 
WAVCIS,ioos:station:WAVCIS:CSI16:1,2009-07-06T00:00:00Z,29.4012,-89.0355,9.142,11111222 
WAVCIS,ioos:station:WAVCIS:CSI16:1,2009-07-06T01:00:00Z,29.4012,-89.0355,9.132,11111222 
WAVCIS,ioos:station:WAVCIS:CSI16:1,2009-07-06T02:00:00Z,29.4012,-89.0355,9.13,11111222 
WAVCIS,ioos:station:WAVCIS:CSI16:1,2009-07-06T03:00:00Z,29.4012,-89.0355,9.189,11111222 
WAVCIS,ioos:station:WAVCIS:CSI16:1,2009-07-06T04:00:00Z,29.4012,-89.0355,9.232,11111222 
WAVCIS,ioos:station:WAVCIS:CSI16:1,2009-07-06T05:00:00Z,29.4012,-89.0355,9.28,11111222 
WAVCIS,ioos:station:WAVCIS:CSI16:1,2009-07-06T06:00:00Z,29.4012,-89.0355,9.34,11111222 
WAVCIS,ioos:station:WAVCIS:CSI16:1,2009-07-06T07:00:00Z,29.4012,-89.0355,9.396,11111222 
WAVCIS,ioos:station:WAVCIS:CSI16:1,2009-07-06T08:00:00Z,29.4012,-89.0355,9.44,11111222 
WAVCIS,ioos:station:WAVCIS:CSI16:1,2009-07-06T09:00:00Z,29.4012,-89.0355,9.488,11111222 
WAVCIS,ioos:station:WAVCIS:CSI16:1,2009-07-06T10:00:00Z,29.4012,-89.0355,9.54,11111222 
WAVCIS,ioos:station:WAVCIS:CSI16:1,2009-07-06T11:00:00Z,29.4012,-89.0355,9.59,11111222 
WAVCIS,ioos:station:WAVCIS:CSI16:1,2009-07-06T12:00:00Z,29.4012,-89.0355,9.63,11111222 
WAVCIS,ioos:station:WAVCIS:CSI16:1,2009-07-06T13:00:00Z,29.4012,-89.0355,9.644,11111222 
WAVCIS,ioos:station:WAVCIS:CSI16:1,2009-07-06T14:00:00Z,29.4012,-89.0355,9.652,11111222 
WAVCIS,ioos:station:WAVCIS:CSI16:1,2009-07-06T15:00:00Z,29.4012,-89.0355,9.63,11111222 
WAVCIS,ioos:station:WAVCIS:CSI16:1,2009-07-06T16:00:00Z,29.4012,-89.0355,9.59,11111222 
WAVCIS,ioos:station:WAVCIS:CSI16:1,2009-07-06T17:00:00Z,29.4012,-89.0355,9.535,11111222 
WAVCIS,ioos:station:WAVCIS:CSI16:1,2009-07-06T18:00:00Z,29.4012,-89.0355,9.462,11111222 
WAVCIS,ioos:station:WAVCIS:CSI16:1,2009-07-06T19:00:00Z,29.4012,-89.0355,9.401,11111222 
WAVCIS,ioos:station:WAVCIS:CSI16:1,2009-07-06T20:00:00Z,29.4012,-89.0355,9.28,11111222 
WAVCIS,ioos:station:WAVCIS:CSI16:1,2009-07-06T21:00:00Z,29.4012,-89.0355,9.104,11111222 
WAVCIS,ioos:station:WAVCIS:CSI16:1,2009-07-06T22:00:00Z,29.4012,-89.0355,9.085,11111222 
WAVCIS,ioos:station:WAVCIS:CSI16:1,2009-07-06T23:00:00Z,29.4012,-89.0355,9.089,11111222 
WAVCIS,ioos:station:WAVCIS:CSI16:1,2009-07-07T00:00:00Z,29.4012,-89.0355,9.063,11111222 
WAVCIS,ioos:station:WAVCIS:CSI16:1,2009-07-07T01:00:00Z,29.4012,-89.0355,9.06,11111222 
WAVCIS,ioos:station:WAVCIS:CSI16:1,2009-07-07T02:00:00Z,29.4012,-89.0355,9.088,11111222 
WAVCIS,ioos:station:WAVCIS:CSI16:1,2009-07-07T03:00:00Z,29.4012,-89.0355,9.129,11111222 
WAVCIS,ioos:station:WAVCIS:CSI16:1,2009-07-07T04:00:00Z,29.4012,-89.0355,9.181,11111222 
WAVCIS,ioos:station:WAVCIS:CSI16:1,2009-07-07T05:00:00Z,29.4012,-89.0355,9.254,11111222 
WAVCIS,ioos:station:WAVCIS:CSI16:1,2009-07-07T06:00:00Z,29.4012,-89.0355,9.291,11111222 
WAVCIS,ioos:station:WAVCIS:CSI16:1,2009-07-07T07:00:00Z,29.4012,-89.0355,9.338,11111222 
WAVCIS,ioos:station:WAVCIS:CSI16:1,2009-07-07T08:00:00Z,29.4012,-89.0355,9.393,11111222 
WAVCIS,ioos:station:WAVCIS:CSI16:1,2009-07-07T09:00:00Z,29.4012,-89.0355,9.457,11111222 
WAVCIS,ioos:station:WAVCIS:CSI16:1,2009-07-07T10:00:00Z,29.4012,-89.0355,9.513,11111222 
WAVCIS,ioos:station:WAVCIS:CSI16:1,2009-07-07T11:00:00Z,29.4012,-89.0355,9.585,11111222 
WAVCIS,ioos:station:WAVCIS:CSI16:1,2009-07-07T12:00:00Z,29.4012,-89.0355,9.618,11111222 
WAVCIS,ioos:station:WAVCIS:CSI16:1,2009-07-07T13:00:00Z,29.4012,-89.0355,9.651,11111222 
WAVCIS,ioos:station:WAVCIS:CSI16:1,2009-07-07T14:00:00Z,29.4012,-89.0355,9.711,11111222 
WAVCIS,ioos:station:WAVCIS:CSI16:1,2009-07-07T15:00:00Z,29.4012,-89.0355,9.679,11111222 
WAVCIS,ioos:station:WAVCIS:CSI16:1,2009-07-07T16:00:00Z,29.4012,-89.0355,9.547,11111222 
WAVCIS,ioos:station:WAVCIS:CSI16:1,2009-07-07T17:00:00Z,29.4012,-89.0355,9.561,11111222 
WAVCIS,ioos:station:WAVCIS:CSI16:1,2009-07-07T18:00:00Z,29.4012,-89.0355,9.523,11111222 
WAVCIS,ioos:station:WAVCIS:CSI16:1,2009-07-07T19:00:00Z,29.4012,-89.0355,9.424,11111222 
WAVCIS,ioos:station:WAVCIS:CSI16:1,2009-07-07T20:00:00Z,29.4012,-89.0355,9.334,11111222 
WAVCIS,ioos:station:WAVCIS:CSI16:1,2009-07-07T21:00:00Z,29.4012,-89.0355,9.276,11111222 
WAVCIS,ioos:station:WAVCIS:CSI16:1,2009-07-07T22:00:00Z,29.4012,-89.0355,9.188,11111222 
WAVCIS,ioos:station:WAVCIS:CSI16:1,2009-07-07T23:00:00Z,29.4012,-89.0355,9.145,11111222 
WAVCIS,ioos:station:WAVCIS:CSI16:1,2009-07-08T00:00:00Z,29.4012,-89.0355,9.049,11111222 
WAVCIS,ioos:station:WAVCIS:CSI16:1,2009-07-08T01:00:00Z,29.4012,-89.0355,9.032,11111222 
WAVCIS,ioos:station:WAVCIS:CSI16:1,2009-07-08T02:00:00Z,29.4012,-89.0355,9.107,11111222 
WAVCIS,ioos:station:WAVCIS:CSI16:1,2009-07-08T03:00:00Z,29.4012,-89.0355,9.107,11111222 
WAVCIS,ioos:station:WAVCIS:CSI16:1,2009-07-08T04:00:00Z,29.4012,-89.0355,9.132,11111222 
WAVCIS,ioos:station:WAVCIS:CSI16:1,2009-07-08T05:00:00Z,29.4012,-89.0355,9.199,11111222 
WAVCIS,ioos:station:WAVCIS:CSI16:1,2009-07-08T06:00:00Z,29.4012,-89.0355,9.255,11111222 
WAVCIS,ioos:station:WAVCIS:CSI16:1,2009-07-08T07:00:00Z,29.4012,-89.0355,9.295,11111222 
WAVCIS,ioos:station:WAVCIS:CSI16:1,2009-07-08T08:00:00Z,29.4012,-89.0355,9.352,11111222 
WAVCIS,ioos:station:WAVCIS:CSI16:1,2009-07-08T09:00:00Z,29.4012,-89.0355,9.415,11111222 
WAVCIS,ioos:station:WAVCIS:CSI16:1,2009-07-08T10:00:00Z,29.4012,-89.0355,9.467,11111222 
WAVCIS,ioos:station:WAVCIS:CSI16:1,2009-07-08T11:00:00Z,29.4012,-89.0355,9.552,11111222 
WAVCIS,ioos:station:WAVCIS:CSI16:1,2009-07-08T12:00:00Z,29.4012,-89.0355,9.573,11111222 
WAVCIS,ioos:station:WAVCIS:CSI16:1,2009-07-08T13:00:00Z,29.4012,-89.0355,9.622,11111222 
WAVCIS,ioos:station:WAVCIS:CSI16:1,2009-07-08T14:00:00Z,29.4012,-89.0355,9.651,11111222 
WAVCIS,ioos:station:WAVCIS:CSI16:1,2009-07-08T15:00:00Z,29.4012,-89.0355,9.652,11111222 
WAVCIS,ioos:station:WAVCIS:CSI16:1,2009-07-08T16:00:00Z,29.4012,-89.0355,9.617,11111222 
WAVCIS,ioos:station:WAVCIS:CSI16:1,2009-07-08T17:00:00Z,29.4012,-89.0355,9.618,11111222 
WAVCIS,ioos:station:WAVCIS:CSI16:1,2009-07-08T18:00:00Z,29.4012,-89.0355,9.554,11111222 
WAVCIS,ioos:station:WAVCIS:CSI16:1,2009-07-08T19:00:00Z,29.4012,-89.0355,9.484,11111222 
WAVCIS,ioos:station:WAVCIS:CSI16:1,2009-07-08T20:00:00Z,29.4012,-89.0355,9.401,11111222 
WAVCIS,ioos:station:WAVCIS:CSI16:1,2009-07-08T21:00:00Z,29.4012,-89.0355,9.328,11111222 
WAVCIS,ioos:station:WAVCIS:CSI16:1,2009-07-08T22:00:00Z,29.4012,-89.0355,9.246,11111222 
WAVCIS,ioos:station:WAVCIS:CSI16:1,2009-07-08T23:00:00Z,29.4012,-89.0355,9.202,11111222 
WAVCIS,ioos:station:WAVCIS:CSI16:1,2009-07-09T00:00:00Z,29.4012,-89.0355,9.107,11111222 
WAVCIS,ioos:station:WAVCIS:CSI16:1,2009-07-09T01:00:00Z,29.4012,-89.0355,9.097,11111222 
WAVCIS,ioos:station:WAVCIS:CSI16:1,2009-07-09T02:00:00Z,29.4012,-89.0355,9.124,11111222 
WAVCIS,ioos:station:WAVCIS:CSI16:1,2009-07-09T03:00:00Z,29.4012,-89.0355,9.126,11111222 
WAVCIS,ioos:station:WAVCIS:CSI16:1,2009-07-09T04:00:00Z,29.4012,-89.0355,9.137,11111222 
WAVCIS,ioos:station:WAVCIS:CSI16:1,2009-07-09T05:00:00Z,29.4012,-89.0355,9.196,11111222 
WAVCIS,ioos:station:WAVCIS:CSI16:1,2009-07-09T06:00:00Z,29.4012,-89.0355,9.235,11111222 
WAVCIS,ioos:station:WAVCIS:CSI16:1,2009-07-09T07:00:00Z,29.4012,-89.0355,9.282,11111222 
WAVCIS,ioos:station:WAVCIS:CSI16:1,2009-07-09T08:00:00Z,29.4012,-89.0355,9.315,11111222 
WAVCIS,ioos:station:WAVCIS:CSI16:1,2009-07-09T09:00:00Z,29.4012,-89.0355,9.376,11111222 
WAVCIS,ioos:station:WAVCIS:CSI16:1,2009-07-09T10:00:00Z,29.4012,-89.0355,9.441,11111222 
WAVCIS,ioos:station:WAVCIS:CSI16:1,2009-07-09T11:00:00Z,29.4012,-89.0355,9.49,11111222 
WAVCIS,ioos:station:WAVCIS:CSI16:1,2009-07-09T12:00:00Z,29.4012,-89.0355,9.546,11111222 
WAVCIS,ioos:station:WAVCIS:CSI16:1,2009-07-09T13:00:00Z,29.4012,-89.0355,9.602,11111222 
WAVCIS,ioos:station:WAVCIS:CSI16:1,2009-07-09T14:00:00Z,29.4012,-89.0355,9.629,11111222 
WAVCIS,ioos:station:WAVCIS:CSI16:1,2009-07-09T15:00:00Z,29.4012,-89.0355,9.662,11111222 
WAVCIS,ioos:station:WAVCIS:CSI16:1,2009-07-09T16:00:00Z,29.4012,-89.0355,9.656,11111222 
WAVCIS,ioos:station:WAVCIS:CSI16:1,2009-07-09T17:00:00Z,29.4012,-89.0355,9.639,11111222 
WAVCIS,ioos:station:WAVCIS:CSI16:1,2009-07-09T18:00:00Z,29.4012,-89.0355,9.6,11111222 
WAVCIS,ioos:station:WAVCIS:CSI16:1,2009-07-09T19:00:00Z,29.4012,-89.0355,9.546,11111222 
WAVCIS,ioos:station:WAVCIS:CSI16:1,2009-07-09T20:00:00Z,29.4012,-89.0355,9.471,11111222 
WAVCIS,ioos:station:WAVCIS:CSI16:1,2009-07-09T21:00:00Z,29.4012,-89.0355,9.39,11111222 
WAVCIS,ioos:station:WAVCIS:CSI16:1,2009-07-09T22:00:00Z,29.4012,-89.0355,9.33,11111222 
WAVCIS,ioos:station:WAVCIS:CSI16:1,2009-07-09T23:00:00Z,29.4012,-89.0355,9.263,11111222 
WAVCIS,ioos:station:WAVCIS:CSI16:1,2009-07-10T00:00:00Z,29.4012,-89.0355,9.238,11111222 
WAVCIS,ioos:station:WAVCIS:CSI16:1,2009-07-10T01:00:00Z,29.4012,-89.0355,9.222,11111222 
WAVCIS,ioos:station:WAVCIS:CSI16:1,2009-07-10T02:00:00Z,29.4012,-89.0355,9.2,11111222 
WAVCIS,ioos:station:WAVCIS:CSI16:1,2009-07-10T03:00:00Z,29.4012,-89.0355,9.221,11111222 
WAVCIS,ioos:station:WAVCIS:CSI16:1,2009-07-10T04:00:00Z,29.4012,-89.0355,9.242,11111222 
WAVCIS,ioos:station:WAVCIS:CSI16:1,2009-07-10T05:00:00Z,29.4012,-89.0355,9.257,11111222 
WAVCIS,ioos:station:WAVCIS:CSI16:1,2009-07-10T06:00:00Z,29.4012,-89.0355,9.305,11111222 
WAVCIS,ioos:station:WAVCIS:CSI16:1,2009-07-10T07:00:00Z,29.4012,-89.0355,9.323,11111222 
WAVCIS,ioos:station:WAVCIS:CSI16:1,2009-07-10T08:00:00Z,29.4012,-89.0355,9.362,11111222 
WAVCIS,ioos:station:WAVCIS:CSI16:1,2009-07-10T09:00:00Z,29.4012,-89.0355,9.402,11111222 
WAVCIS,ioos:station:WAVCIS:CSI16:1,2009-07-10T10:00:00Z,29.4012,-89.0355,9.433,11111222 
WAVCIS,ioos:station:WAVCIS:CSI16:1,2009-07-10T11:00:00Z,29.4012,-89.0355,9.482,11111222 
WAVCIS,ioos:station:WAVCIS:CSI16:1,2009-07-10T12:00:00Z,29.4012,-89.0355,9.535,11111222 
WAVCIS,ioos:station:WAVCIS:CSI16:1,2009-07-10T13:00:00Z,29.4012,-89.0355,9.579,11111222 
WAVCIS,ioos:station:WAVCIS:CSI16:1,2009-07-10T14:00:00Z,29.4012,-89.0355,9.596,11111222 
WAVCIS,ioos:station:WAVCIS:CSI16:1,2009-07-10T15:00:00Z,29.4012,-89.0355,9.618,11111222 
WAVCIS,ioos:station:WAVCIS:CSI16:1,2009-07-10T16:00:00Z,29.4012,-89.0355,9.636,11111222 
WAVCIS,ioos:station:WAVCIS:CSI16:1,2009-07-10T17:00:00Z,29.4012,-89.0355,9.631,11111222 
WAVCIS,ioos:station:WAVCIS:CSI16:1,2009-07-10T18:00:00Z,29.4012,-89.0355,9.605,11111222 
WAVCIS,ioos:station:WAVCIS:CSI16:1,2009-07-10T19:00:00Z,29.4012,-89.0355,9.573,11111222 
WAVCIS,ioos:station:WAVCIS:CSI16:1,2009-07-10T20:00:00Z,29.4012,-89.0355,9.518,11111222 
WAVCIS,ioos:station:WAVCIS:CSI16:1,2009-07-10T21:00:00Z,29.4012,-89.0355,9.453,11111222 
WAVCIS,ioos:station:WAVCIS:CSI16:1,2009-07-10T22:00:00Z,29.4012,-89.0355,9.399,11111222 
WAVCIS,ioos:station:WAVCIS:CSI16:1,2009-07-10T23:00:00Z,29.4012,-89.0355,9.355,11111222 
WAVCIS,ioos:station:WAVCIS:CSI16:1,2009-07-11T00:00:00Z,29.4012,-89.0355,9.313,11111222 
WAVCIS,ioos:station:WAVCIS:CSI16:1,2009-07-11T01:00:00Z,29.4012,-89.0355,9.301,11111222 
WAVCIS,ioos:station:WAVCIS:CSI16:1,2009-07-11T02:00:00Z,29.4012,-89.0355,9.299,11111222 
WAVCIS,ioos:station:WAVCIS:CSI16:1,2009-07-11T03:00:00Z,29.4012,-89.0355,9.292,11111222 
WAVCIS,ioos:station:WAVCIS:CSI16:1,2009-07-11T04:00:00Z,29.4012,-89.0355,9.297,11111222 
WAVCIS,ioos:station:WAVCIS:CSI16:1,2009-07-11T05:00:00Z,29.4012,-89.0355,9.325,11111222 
WAVCIS,ioos:station:WAVCIS:CSI16:1,2009-07-11T06:00:00Z,29.4012,-89.0355,9.333,11111222 
WAVCIS,ioos:station:WAVCIS:CSI16:1,2009-07-11T07:00:00Z,29.4012,-89.0355,9.36,11111222 
WAVCIS,ioos:station:WAVCIS:CSI16:1,2009-07-11T08:00:00Z,29.4012,-89.0355,9.393,11111222 
WAVCIS,ioos:station:WAVCIS:CSI16:1,2009-07-11T09:00:00Z,29.4012,-89.0355,9.405,11111222 
WAVCIS,ioos:station:WAVCIS:CSI16:1,2009-07-11T10:00:00Z,29.4012,-89.0355,9.433,11111222 
WAVCIS,ioos:station:WAVCIS:CSI16:1,2009-07-11T11:00:00Z,29.4012,-89.0355,9.469,11111222 
WAVCIS,ioos:station:WAVCIS:CSI16:1,2009-07-11T12:00:00Z,29.4012,-89.0355,9.503,11111222 
WAVCIS,ioos:station:WAVCIS:CSI16:1,2009-07-11T13:00:00Z,29.4012,-89.0355,9.545,11111222 
WAVCIS,ioos:station:WAVCIS:CSI16:1,2009-07-11T14:00:00Z,29.4012,-89.0355,9.58,11111222 
WAVCIS,ioos:station:WAVCIS:CSI16:1,2009-07-11T15:00:00Z,29.4012,-89.0355,9.601,11111222 
WAVCIS,ioos:station:WAVCIS:CSI16:1,2009-07-11T16:00:00Z,29.4012,-89.0355,9.623,11111222 
WAVCIS,ioos:station:WAVCIS:CSI16:1,2009-07-11T17:00:00Z,29.4012,-89.0355,9.625,11111222 
WAVCIS,ioos:station:WAVCIS:CSI16:1,2009-07-11T18:00:00Z,29.4012,-89.0355,9.609,11111222 
WAVCIS,ioos:station:WAVCIS:CSI16:1,2009-07-11T19:00:00Z,29.4012,-89.0355,9.581,11111222 
WAVCIS,ioos:station:WAVCIS:CSI16:1,2009-07-11T20:00:00Z,29.4012,-89.0355,9.539,11111222 
WAVCIS,ioos:station:WAVCIS:CSI16:1,2009-07-11T21:00:00Z,29.4012,-89.0355,9.48,11111222 
WAVCIS,ioos:station:WAVCIS:CSI16:1,2009-07-11T22:00:00Z,29.4012,-89.0355,9.434,11111222 
WAVCIS,ioos:station:WAVCIS:CSI16:1,2009-07-11T23:00:00Z,29.4012,-89.0355,9.393,11111222 
WAVCIS,ioos:station:WAVCIS:CSI16:1,2009-07-12T00:00:00Z,29.4012,-89.0355,9.37,11111222 
WAVCIS,ioos:station:WAVCIS:CSI16:1,2009-07-12T01:00:00Z,29.4012,-89.0355,9.351,11111222 
WAVCIS,ioos:station:WAVCIS:CSI16:1,2009-07-12T02:00:00Z,29.4012,-89.0355,9.346,11111222 
WAVCIS,ioos:station:WAVCIS:CSI16:1,2009-07-12T03:00:00Z,29.4012,-89.0355,9.359,11111222 
WAVCIS,ioos:station:WAVCIS:CSI16:1,2009-07-12T04:00:00Z,29.4012,-89.0355,9.369,11111222 